This demonstration page uses our WeatherBlox Daily Observations layout. Learn more.

Left ArrowRight Arrow

39.92423, -83.80882

Hourly Observations for January 29, 2021

Temp ( °F °C ) Dew Point ( °F °C ) Humidity (%) Winds ( mph kmh ) Pressure ( in mb ) Visibility ( mi km ) Precip ( " mm )
12:17 am 00:17 Cloudy 21 -6 16 -9 80 80 NNW 8 13 30.56 1035 10 16.0934 0 0
12:56 am 00:56 Mostly Cloudy 19 -7.2 15 -9.4 84 84 NNW 5 7 30.51 1033 10 16.0934 0 0
1:11 am 01:11 Mostly Cloudy 19 -7 14 -10 79 79 NNW 5 7 30.55 1034 10 16.0934 0 0
1:56 am 01:56 Mostly Cloudy 19 -7.2 14 -10 81 81 NNW 5 7 30.51 1033 10 16.0934 0 0
2:56 am 02:56 Clear 19 -7.2 15 -9.4 84 84 NW 3 6 30.51 1033 10 16.0934 0 0
3:56 am 03:56 Clear 20 -6.7 15 -9.4 81 81 NW 5 7 30.51 1033 10 16.0934 0 0
4:56 am 04:56 Clear 20 -6.7 16 -8.9 85 85 Calm 30.49 1032 10 16.0934 0 0
5:56 am 05:56 Mostly Clear 20 -6.7 17 -8.3 89 89 NW 5 7 30.49 1032 10 16.0934 0 0
6:56 am 06:56 Clear 20 -6.7 17 -8.3 89 89 Calm 30.49 1033 10 16.0934 0 0
7:56 am 07:56 Sunny 20 -6.7 17 -8.3 89 89 NW 5 7 30.5 1033 10 16.0934 0 0
8:56 am 08:56 Sunny 21 -6.1 16 -8.9 81 81 NNW 3 6 30.51 1033 10 16.0934 0 0
9:56 am 09:56 Cloudy 22 -5.6 16 -8.9 78 78 N 5 7 30.51 1033 10 16.0934 0 0
10:56 am 10:56 Partly Cloudy 24 -4.4 16 -8.9 71 71 Calm 30.49 1033 10 16.0934 0 0
11:56 am 11:56 Sunny 26 -3.3 15 -9.4 63 63 NNW 6 9 30.49 1033 10 16.0934 0 0
12:56 pm 12:56 Sunny 28 -2.2 16 -8.9 60 60 VRB 3 6 30.45 1031 10 16.0934 0 0
1:56 pm 13:56 Cloudy 30 -1.1 17 -8.3 58 58 W 6 9 30.42 1030 10 16.0934 0 0
2:56 pm 14:56 Sunny 31 -0.6 17 -8.3 56 56 NW 6 9 30.4 1030 10 16.0934 0 0
3:56 pm 15:56 Sunny 31 -0.6 17 -8.3 56 56 Calm 30.39 1029 10 16.0934 0 0
4:56 pm 16:56 Sunny 31 -0.6 17 -8.3 56 56 Calm 30.39 1029 10 16.0934 0 0
5:56 pm 17:56 Clear 29 -1.7 17 -8.3 61 61 Calm 30.39 1029 10 16.0934 0 0
6:56 pm 18:56 Clear 27 -2.8 16 -8.9 63 63 Calm 30.39 1029 10 16.0934 0 0
7:56 pm 19:56 Clear 26 -3.3 17 -8.3 69 69 Calm 30.4 1030 10 16.0934 0 0
8:56 pm 20:56 Clear 24 -4.4 19 -7.2 81 81 SSW 3 6 30.4 1029 10 16.0934 0 0
9:56 pm 21:56 Clear 23 -5 18 -7.8 81 81 S 3 6 30.38 1029 10 16.0934 0 0
10:56 pm 22:56 Clear 19 -7.2 17 -8.3 92 92 E 3 6 30.38 1029 10 16.0934 0 0
11:56 pm 23:56 Clear 19 -7.2 17 -8.3 92 92 E 3 6 30.38 1029 10 16.0934 0 0

Powered by AerisWeather